Date,TemperatureHighF,TemperatureAvgF,TemperatureLowF,DewpointHighF,DewpointAvgF,DewpointLowF,HumidityHigh,HumidityAvg,HumidityLow,PressureMaxIn,PressureMinIn,WindSpeedMaxMPH,WindSpeedAvgMPH,GustSpeedMaxMPH,PrecipitationSumIn
2013-1-1,21.4,14.3,5.5,14.4,9.6,2.8,90,81,61,30.41,30.21,14,6,16,0.00
2013-1-2,34.2,25.1,13.6,29.7,21.1,9.7,92,84,80,30.30,30.13,16,7,17,0.00
2013-1-3,30.7,23.5,15.4,27.3,19.6,12.7,90,85,79,30.48,30.30,28,8,29,0.00
2013-1-4,35.8,23.3,16.3,24.3,17.6,13.1,91,79,56,30.39,30.21,18,7,19,0.00
2013-1-5,32.9,26.0,20.1,29.3,21.4,16.3,91,83,69,30.28,30.06,30,10,34,0.00
2013-1-6,37.9,25.5,13.6,27.3,20.1,10.9,90,81,62,30.40,30.19,27,8,30,0.00
2013-1-7,40.1,33.7,25.5,30.7,27.0,22.1,91,77,65,30.19,29.98,32,9,32,0.00
2013-1-8,41.7,33.5,25.2,33.4,28.6,22.6,92,82,70,30.19,29.90,28,7,28,0.00
2013-1-9,49.5,37.2,26.8,37.6,30.5,22.1,89,77,58,30.48,30.18,12,4,14,0.00
2013-1-10,38.7,36.2,32.7,37.2,32.6,26.6,98,87,68,30.37,29.73,27,10,30,0.11
2013-1-11,52.9,42.1,26.1,47.3,39.3,19.0,100,90,73,29.79,29.41,38,15,43,0.01
2013-1-12,26.1,19.1,11.7,19.8,11.1,5.2,78,71,61,30.20,29.79,31,16,43,0.00
2013-1-13,20.5,13.1,7.3,10.2,6.0,3.0,89,73,58,30.43,30.19,23,9,24,0.00
2013-1-14,30.4,17.5,7.0,14.4,9.8,3.2,86,72,49,30.56,30.42,14,2,16,0.00
2013-1-15,34.7,23.6,14.9,20.5,15.5,10.2,83,72,51,30.43,30.11,17,6,20,0.00
2013-1-16,49.8,35.9,23.0,35.2,27.8,17.6,87,73,56,30.28,29.98,24,10,26,0.00
2013-1-17,40.5,31.0,26.2,37.9,29.2,24.8,98,93,80,30.51,30.28,15,4,15,0.00
2013-1-18,52.5,40.2,30.2,35.4,31.1,27.3,92,71,49,30.34,29.92,31,10,35,0.00
2013-1-19,51.6,40.1,24.3,35.1,29.3,16.9,80,66,48,30.36,29.89,39,13,39,0.00
2013-1-20,24.3,17.7,11.7,18.3,10.6,7.3,87,74,60,30.48,30.34,23,7,23,0.00
2013-1-21,15.3,11.7,8.2,11.5,0.8,-5.1,89,62,48,30.54,30.44,24,10,27,0.00
2013-1-22,24.6,16.2,11.5,12.4,8.7,0.9,92,73,55,30.48,30.31,17,5,17,0.00
2013-1-23,29.5,19.6,11.8,20.3,12.9,5.5,85,75,64,30.56,30.23,28,12,29,0.00
2013-1-24,19.9,11.6,2.1,8.2,1.3,-4.2,77,63,49,30.61,30.26,24,11,27,0.00
2013-1-25,48.9,29.8,15.8,28.2,18.9,7.7,85,65,42,30.30,30.20,19,6,20,0.00
2013-1-26,54.1,32.9,18.0,29.3,23.3,15.3,90,71,34,30.29,30.04,30,13,31,0.00
2013-1-27,42.4,38.6,35.1,41.9,36.7,26.8,98,93,65,30.04,29.71,27,11,28,0.20
2013-1-28,45.7,38.7,32.7,45.5,38.4,32.2,99,99,98,29.89,29.58,18,6,18,0.02
2013-1-29,39.6,33.3,30.6,39.4,32.2,29.7,99,95,91,29.74,29.58,30,16,31,0.01
2013-1-30,30.6,21.7,15.3,29.8,17.8,11.1,98,85,71,30.01,29.66,45,20,48,0.00
2013-1-31,16.5,8.2,-1.1,12.4,1.6,-6.2,85,74,62,30.52,29.99,47,14,50,0.00